Home > Weather > Viersen > Past weeks

Flag for Germany Past Weather in Viersen, North Rhine-Westphalia, Germany — Yesterday and Last 2 Weeks

Now
79 °F

Passing clouds.


Feels Like: 80 °F
Forecast: 60 / 71 °F
Wind: 13 mph from West

Location: Monchengladbach Airport

Current Time: Aug 28, 2016 at 4:17:24 PM

Latest Report: Aug 28, 2016 at 3:20 PM


Visibility: N/A

Pressure: 29.92 "Hg

Humidity: 58%

Dew Point: 63 °F

Location of ViersenLocation

Past Weather in Viersen — Graph

°F

Viersen Temperature Yesterday

Maximum temperature yesterday: 93 °F (at 5:20 PM)
Minimum temperature yesterday: 68 °F (at 7:50 AM)
Average temperature yesterday: 82 °F

High & Low Weather Summary for the Past Weeks

 TemperatureHumidityPressure
High93 °F (Aug 27, 5:20 PM)100% (Aug 22, 9:50 AM)30.33 "Hg (Aug 22, 9:50 AM)
Low55 °F (Aug 18, 7:50 AM)26% (Aug 25, 4:50 PM)29.77 "Hg (Aug 18, 2:50 PM)
Average74 °F59%30.05 "Hg
* Reported Aug 13 2:20 PM — Aug 28 2:50 PM, Viersen, Weather by CustomWeather, © 2016

Note: Actual official high and low records may vary slightly from our data, if they occured in-between our weather recording intervals... More about our weather records

Advertising

Viersen Weather History for the Previous 24 Hours

Scroll right to see more
 ConditionsComfort  
Time TempWeatherWind HumidityBarometerVisibility
2:50 PM
Sun, Aug 28
81 °FPassing clouds.12 mph58%29.92 "HgN/A
2:20 PM81 °FPassing clouds.12 mph62%29.92 "HgN/A
1:50 PM81 °FClear.13 mph62%29.92 "Hg10 mi
1:20 PM82 °FClear.12 mph55%29.89 "Hg10 mi
12:50 PM84 °FPassing clouds.12 mph51%29.89 "HgN/A
12:20 PM84 °FPassing clouds.12 mph51%29.89 "HgN/A
11:50 AM86 °FPassing clouds.10 mph49%29.89 "HgN/A
11:20 AM86 °FSunny.6 mph52%29.89 "Hg10 mi
10:50 AM82 °FPassing clouds.6 mph62%29.89 "HgN/A
10:20 AM81 °FPassing clouds.5 mph62%29.89 "HgN/A
9:50 AM77 °FPassing clouds.6 mph69%29.89 "HgN/A
9:20 AM75 °FPassing clouds.5 mph74%29.89 "HgN/A
8:50 AM73 °FSunny.3 mph74%29.89 "Hg10 mi
8:20 AM70 °FSunny.5 mph83%29.89 "Hg10 mi
7:50 AM68 °FSunny.No wind83%29.89 "Hg10 mi
8:20 PM
Sat, Aug 27
84 °FClear.9 mph58%29.92 "Hg10 mi
7:50 PM82 °FClear.5 mph58%29.92 "Hg10 mi
7:20 PM84 °FPassing clouds.5 mph62%29.92 "HgN/A
6:50 PM84 °FClear.3 mph58%29.95 "Hg10 mi
6:20 PM90 °FPassing clouds.7 mph49%29.95 "HgN/A
5:50 PM91 °FClear.8 mph41%29.95 "Hg10 mi
5:20 PM93 °FPassing clouds.6 mph44%29.98 "HgN/A
4:50 PM91 °FPassing clouds.6 mph46%29.98 "HgN/A
4:20 PM90 °FPassing clouds.7 mph49%29.98 "HgN/A
Weather by CustomWeather, © 2016

See weather overviewHow to use our weather pages